Simultaneous Nadir Overpasses (SNOs) Predictions

Prediction of SNOs between GOES-15 and METOP-C Satellite Orbit:

Table of predicted SNOs for the next 14.0 days since TLE Epoch: 1/29/2022
Index Date Time (GOES-15) GOES-15 Lat,Lon METOP-C Lat,Lon Distance(km) Time Diff (sec)
1 01/31/2022 06:06:53 0.01,-128.29 -0.04,-128.52 26.62 80
2 02/02/2022 18:02:24 0.02,-128.28 -0.03,-128.07 23.74 80
3 02/05/2022 06:03:26 -0.02,-128.23 0.10,-127.68 62.90 80
4 02/06/2022 18:19:36 0.02,-128.23 0.94,-132.23 455.63 80
5 02/07/2022 17:58:58 0.02,-128.22 -0.23,-127.24 112.04 80
6 02/09/2022 06:17:58 -0.02,-128.17 -0.85,-131.83 417.42 80
7 02/10/2022 05:59:58 -0.01,-128.15 0.26,-126.83 149.67 80
8 02/11/2022 18:16:10 -0.00,-128.15 0.73,-131.40 370.21 80
